Flag for Germany Weather past 2 weeks in Siegen, North Rhine-Westphalia, Germany

Now
32 °F

Passing clouds.


Feels Like: 21 °F
Forecast: 34 / 41 °F
Wind: 16 mph from West

Location: Hessen

Current Time: Mar 2, 2015 at 8:26:41 PM

Latest Report: Mar 2, 2015 at 7:50 PM


Visibility: N/A

Pressure: 29.80 "Hg

Humidity: 93%

Dew point: 30 °F

Location of SiegenLocation

Historic Weather in Siegen — Graph

°F

Siegen temperature yesterday

Maximum temperature yesterday: 45 °F (at 2:50 PM)
Minimum temperature yesterday: 32 °F (at 7:50 AM)
Average temperature yesterday: 39 °F

Past Weeks' High & Low Weather Summary

 TemperatureHumidityPressure
High88 °F (Feb 19, 5:50 PM)100% (Feb 16, 7:50 AM)30.69 "Hg (Feb 16, 7:50 AM)
Low27 °F (Feb 16, 7:50 AM)60% (Feb 22, 2:20 PM)29.36 "Hg (Feb 21, 7:50 AM)
Average33 °F93%29.93 "Hg
* Reported Feb 16 7:50 AM — Mar 2 6:50 PM, Siegen, Weather by CustomWeather, © 2015

Note: Actual official high and low records may vary slightly from our data, if they occured in-between our weather recording intervals... More about our weather records

Advertising

Siegen weather history for previous 24 hours

 ConditionsComfort  
Time TempWeatherWind HumidityBarometerVisibility
6:50 PM
Mon, Mar 2
32 °FPassing clouds.21 mph93%29.77 "HgN/A
5:50 PM32 °FSnow showers. Broken clouds.24 mph100%29.71 "Hg1 mi
5:20 PM34 °FSnow flurries. Partly sunny.17 mph93%29.68 "Hg5 mi
4:50 PM32 °FSnow showers. Partly sunny.17 mph100%29.68 "Hg1 mi
4:20 PM37 °FScattered showers. Partly sunny.6 mph70%29.68 "HgN/A
3:50 PM39 °FScattered showers. Broken clouds.10 mph65%29.68 "HgN/A
3:20 PM39 °FScattered clouds.8 mph65%29.68 "HgN/A
2:50 PM39 °FBroken clouds.12 mph61%29.68 "HgN/A
2:20 PM39 °FBroken clouds.12 mph61%29.68 "HgN/A
1:50 PM37 °FBroken clouds.14 mph65%29.68 "HgN/A
1:20 PM37 °FBroken clouds.15 mph70%29.68 "HgN/A
12:50 PM36 °FPartly sunny.14 mph75%29.68 "HgN/A
12:20 PM37 °FPartly sunny.14 mph70%29.65 "HgN/A
11:50 AM36 °FPartly sunny.14 mph81%29.65 "HgN/A
11:20 AM34 °FBroken clouds.16 mph87%29.65 "HgN/A
10:50 AM32 °FPartly sunny.15 mph100%29.65 "HgN/A
10:20 AM34 °FPartly sunny.16 mph93%29.62 "HgN/A
9:50 AM32 °FBroken clouds.16 mph100%29.62 "HgN/A
9:20 AM34 °FSnow flurries. Partly sunny.16 mph93%29.59 "Hg4 mi
8:50 AM34 °FSnow showers. Fog.16 mph93%29.56 "Hg1 mi
8:20 AM34 °FSnow flurries. Partly sunny.10 mph93%29.56 "HgN/A
7:50 AM34 °FPartly sunny.10 mph93%29.56 "HgN/A
Weather by CustomWeather, © 2015

See weather overviewHow to use our weather pages